Regional Weather Roundup
Issued by NWS Binghamton, NY

Home | Current Version | Previous Version | Text Only | Print | Product List | Glossary On
Versions: 1 2 3 4 5 6 7 8 9 10 11 12 13 14 15 16 17 18 19 20 21 22 23 24 25 26 27 28
000
ASUS41 KBGM 310710
RWRBGM

REGIONAL WEATHER ROUNDUP
NATIONAL WEATHER SERVICE BINGHAMTON NY
300 AM EDT SAT JUL 31 2021

Note: "fair" indicates few or no clouds below 12,000 feet with no
significant weather and/or obstructions to visibility.

* = Station(s) that does not report precipitation, such as rain,
snow, etc, also no thunder or fog.

NYZ009-015>018-022>025-036-037-044>046-055>057-062-310800
...Central New York...

CITY           SKY/WX    TMP DP  RH WIND       PRES   REMARKS
Binghamton     MOCLDY    52  49  89 NW6       30.01S
Cortland       CLOUDY    52  50  93 CALM      30.03R
Dansville      MOCLDY    51  49  92 SE3       30.06S
Elmira         CLEAR     53  51  93 S7        30.02F
Endicott       FAIR      50  50 100 SW5       30.01
Ithaca         MOCLDY    52  51  97 N3        30.03S
Monticello     CLEAR     48  47  96 NW8       30.00F
Norwich        FAIR      48  48 100 CALM      30.02
Oneonta        FAIR      52  48  87 CALM      30.01
Penn Yan       PTCLDY    57  49  74 CALM      30.04R
Rome           MOCLDY    54  46  74 N3        30.00S
Seneca Falls   CLOUDY    55  52  88 W3        30.03
Sidney         CLOUDY    48  48 100 CALM      30.01
Skaneateles    CLOUDY    55  52  88 CALM      30.03R
Syracuse       MOCLDY    58  47  66 SW3       30.01R
$$

PAZ038>040-043-044-047-048-072-310800
...Northeast Pennsylvania...

CITY           SKY/WX    TMP DP  RH WIND       PRES   REMARKS
Scranton       CLEAR     53  50  89 CALM      30.00F
Towanda        SUNNY     52  52 100 CALM      30.05S
$$
&&
KEY
WCI = Wind Chill Index
VSB = Visibility
HX  = Heat Index
$$



USA.gov is the U.S. government's official web portal to all federal, state and local government web resources and services.